User: anonymous   Login
Location: Lamoine Observatory
(44.4551°N, 68.3470°W)
Time: 01:43:03
(UTC-05:00)
Language:

Cosmos 1674 Rocket - Orbit

View from above orbital plane
View from above orbital plane
View from above satellite
View from above satellite

Ground track
Ground track

The orbit data is extracted from the following two-line orbital elements,

1 15945U 85069B   16040.07552919  .00000253  00000-0  27522-4 0  9993
2 15945  82.5253 235.7156 0021229 111.2655 249.0830 14.83820239647752
Epoch (UTC): 09 February 2016 01:48:45
Eccentricity: 0.0021229
inclination: 82.5253°
perigee height: 602 km
apogee height: 632 km
right ascension of ascending node: 235.7156°
argument of perigee: 111.2655°
revolutions per day: 14.83820239
mean anomaly at epoch: 249.0830°
orbit number at epoch: 64775

The dashed part of the orbit path shows where the satellite is in the earth's shadow,  

DLR